IRIDIUM 33 DEB, 39781

Orbit data source: Space-Track

IRIDIUM 33 DEB, 39781 is space debris in LEO originally from a launch on Sun, 14 Sep 1997 UTC launched from the Tyuratam Missile And Space Complex (TTMTR). The debris from Iridium 33, an American commercial communications satellite, has been tracked extensively since its accidental collision with the defunct Russian satellite Cosmos 2251 in 2009. This event, occurring at high speed in low Earth orbit (LEO), generated thousands of pieces of space debris, significantly increasing the risk of further collisions. The Iridium 33 debris cloud has impacted space traffic management and orbital debris mitigation strategies, making it a subject of ongoing study in space situational awareness.

Loading next visibility...
Identifier
39781, 1997-051AAN
Orbit
LEO
Country
Flag of USUS
Related business
Manufacturer
Unknown
Mission
Spacecraft
Bus & Motor
Unknown
Mass
Unknown
Launch date (UTC)
1997-09-14 (28 years ago)
Launch vehicle
Unknown
Launch site
Tyuratam Missile And Space Complex (TTMTR)
Object type
Payload
Rocket body
Debris
Shape & HBR
Unknown
Radar Cross Section
Small (<0.1 m²)

Expand to show TLE details & history
Last TLE update: 3 days ago

TLE from 3 days ago
0 IRIDIUM 33 DEB
1 39781U 97051AAN 25256.87199369  .00002559  00000-0  10541-2 0  9996
2 39781  86.3738 294.8959 0181400 194.5979 290.1602 14.18024320 68323
Epoch: 2025-09-13T20:55Z
TLE epoch observation values (Epoch: 2025-09-13T20:55:40.254Z)
Latitude
57.12792°
Longitude
162.28128°
Altitude
798.73 km
Speed
7.482 km/s
True Right ascension
07h 17m 11s
True Declination
56° 58' 19"
Sunlit
Object was in daylight at epoch
Visualization orbit readout
Latitude
Unknown
Longitude
Unknown
Altitude
Unknown
Speed
Unknown
Apparent Right ascension
Unknown
Apparent Declination
Unknown
Sunlit
N/A
Visualization observer readout
Local Sidereal Time
12:00:19
Azimuth
Unknown
Elevation
Unknown
Doppler factor
Unknown
Orbital elements
Apogee altitude
959.767 km
Perigee altitude
698.291 km
Semi-major axis
7,207.166 km
Eccentricity
0.01814
Inclination
86.3738°
RAAN
294.8959°
Arg. of periapsis
194.5979°
True anomaly
288.19389°
Mean anomaly
290.1602°
Eccentric anomaly
289.17854°
Mean motion
3.54729 °/min
Orbital period
101.49 mins
BSTAR
0.0010541
Loading maneuver chart data...
Computing Atmospheric mass density...

Documentation

Showing up to 5 results
|